,Coso Junction,Coso Junction
,PM10_1HR,PM10_1HR
,,
Date,Value,Null Code
01-Mar-2018 00:00,6,
01-Mar-2018 01:00,5,
01-Mar-2018 02:00,5.4,
01-Mar-2018 03:00,6.2,
01-Mar-2018 04:00,6.3,
01-Mar-2018 05:00,7.3,
01-Mar-2018 06:00,9.1,
01-Mar-2018 07:00,9.7,
01-Mar-2018 08:00,8.4,
01-Mar-2018 09:00,7.9,
01-Mar-2018 10:00,7.8,
01-Mar-2018 11:00,9.2,
01-Mar-2018 12:00,10.9,
01-Mar-2018 13:00,7.9,
01-Mar-2018 14:00,6,
01-Mar-2018 15:00,7.2,
01-Mar-2018 16:00,5.9,
01-Mar-2018 17:00,3,
01-Mar-2018 18:00,7.6,
01-Mar-2018 19:00,6.8,
01-Mar-2018 20:00,8.8,
01-Mar-2018 21:00,8.2,
01-Mar-2018 22:00,9.7,
01-Mar-2018 23:00,10.7,
02-Mar-2018 00:00,8.5,
02-Mar-2018 01:00,7.2,
02-Mar-2018 02:00,5.5,
02-Mar-2018 03:00,5.4,
02-Mar-2018 04:00,4.7,
02-Mar-2018 05:00,4.8,
02-Mar-2018 06:00,4.7,
02-Mar-2018 07:00,4.4,
02-Mar-2018 08:00,4,
02-Mar-2018 09:00,4.6,
02-Mar-2018 10:00,6.9,
02-Mar-2018 11:00,15.1,
02-Mar-2018 12:00,8.1,
02-Mar-2018 13:00,5.5,
02-Mar-2018 14:00,-1.5,
02-Mar-2018 15:00,8.6,
02-Mar-2018 16:00,4.1,
02-Mar-2018 17:00,2.4,
02-Mar-2018 18:00,4.8,
02-Mar-2018 19:00,4.2,
02-Mar-2018 20:00,4.8,
02-Mar-2018 21:00,3.9,
02-Mar-2018 22:00,4.1,
02-Mar-2018 23:00,4.5,
03-Mar-2018 00:00,5.9,
03-Mar-2018 01:00,5,
03-Mar-2018 02:00,3.5,
03-Mar-2018 03:00,3.8,
03-Mar-2018 04:00,3.4,
03-Mar-2018 05:00,3.9,
03-Mar-2018 06:00,5.5,
03-Mar-2018 07:00,4.3,
03-Mar-2018 08:00,2.5,
03-Mar-2018 09:00,3.7,
03-Mar-2018 10:00,6.9,
03-Mar-2018 11:00,6.3,
03-Mar-2018 12:00,35,
03-Mar-2018 13:00,4.5,
03-Mar-2018 14:00,5.7,
03-Mar-2018 15:00,3.2,
03-Mar-2018 16:00,1.9,
03-Mar-2018 17:00,3.4,
03-Mar-2018 18:00,4.6,
03-Mar-2018 19:00,4.5,
03-Mar-2018 20:00,4.3,
03-Mar-2018 21:00,4.6,
03-Mar-2018 22:00,2.3,
03-Mar-2018 23:00,4.8,
04-Mar-2018 00:00,3.3,
04-Mar-2018 01:00,4,
04-Mar-2018 02:00,2.7,
04-Mar-2018 03:00,2.9,
04-Mar-2018 04:00,2.9,
04-Mar-2018 05:00,4.1,
04-Mar-2018 06:00,5,
04-Mar-2018 07:00,5.9,
04-Mar-2018 08:00,5.8,
04-Mar-2018 09:00,4.5,
04-Mar-2018 10:00,3.6,
04-Mar-2018 11:00,2.5,
04-Mar-2018 12:00,2.7,
04-Mar-2018 13:00,2.9,
04-Mar-2018 14:00,3,
04-Mar-2018 15:00,3.8,
04-Mar-2018 16:00,3.9,
04-Mar-2018 17:00,3.4,
04-Mar-2018 18:00,5.7,
04-Mar-2018 19:00,7.1,
04-Mar-2018 20:00,6.1,
04-Mar-2018 21:00,4.8,
04-Mar-2018 22:00,5.3,
04-Mar-2018 23:00,5.1,
05-Mar-2018 00:00,5,
05-Mar-2018 01:00,4.2,
05-Mar-2018 02:00,3.6,
05-Mar-2018 03:00,3.9,
05-Mar-2018 04:00,3.6,
05-Mar-2018 05:00,3.8,
05-Mar-2018 06:00,4.2,
05-Mar-2018 07:00,4.7,
05-Mar-2018 08:00,5.6,
05-Mar-2018 09:00,4.4,
05-Mar-2018 10:00,4.2,
05-Mar-2018 11:00,3.5,
05-Mar-2018 12:00,2.6,
05-Mar-2018 13:00,3.3,
05-Mar-2018 14:00,4.4,
05-Mar-2018 15:00,4.5,
05-Mar-2018 16:00,3.2,
05-Mar-2018 17:00,2.2,
05-Mar-2018 18:00,4.7,
05-Mar-2018 19:00,5.7,
05-Mar-2018 20:00,5.7,
05-Mar-2018 21:00,5.5,
05-Mar-2018 22:00,4.7,
05-Mar-2018 23:00,4.3,
06-Mar-2018 00:00,4.9,
06-Mar-2018 01:00,4.3,
06-Mar-2018 02:00,4.2,
06-Mar-2018 03:00,4.4,
06-Mar-2018 04:00,5.2,
06-Mar-2018 05:00,5.4,
06-Mar-2018 06:00,5.4,
06-Mar-2018 07:00,6.9,
06-Mar-2018 08:00,6.5,
06-Mar-2018 09:00,5.8,
06-Mar-2018 10:00,4.1,
06-Mar-2018 11:00,4.1,
06-Mar-2018 12:00,4.3,
06-Mar-2018 13:00,1.7,
06-Mar-2018 14:00,4.5,
06-Mar-2018 15:00,6.4,
06-Mar-2018 16:00,5.4,
06-Mar-2018 17:00,8.9,
06-Mar-2018 18:00,9.4,
06-Mar-2018 19:00,7.4,
06-Mar-2018 20:00,6.9,
06-Mar-2018 21:00,5.3,
06-Mar-2018 22:00,6,
06-Mar-2018 23:00,8.3,
07-Mar-2018 00:00,7.5,
07-Mar-2018 01:00,5.7,
07-Mar-2018 02:00,5,
07-Mar-2018 03:00,8,
07-Mar-2018 04:00,7.6,
07-Mar-2018 05:00,5.3,
07-Mar-2018 06:00,6.5,
07-Mar-2018 07:00,5.8,
07-Mar-2018 08:00,7.5,
07-Mar-2018 09:00,5.4,
07-Mar-2018 10:00,6.1,
07-Mar-2018 11:00,7.5,
07-Mar-2018 12:00,4.5,
07-Mar-2018 13:00,5.1,
07-Mar-2018 14:00,4,
07-Mar-2018 15:00,12.1,
07-Mar-2018 16:00,6.4,
07-Mar-2018 17:00,4.2,
07-Mar-2018 18:00,6.6,
07-Mar-2018 19:00,7.1,
07-Mar-2018 20:00,8.8,
07-Mar-2018 21:00,8,
07-Mar-2018 22:00,6.3,
07-Mar-2018 23:00,6.6,
08-Mar-2018 00:00,5.6,
08-Mar-2018 01:00,8,
08-Mar-2018 02:00,6.4,
08-Mar-2018 03:00,6.1,
08-Mar-2018 04:00,7.5,
08-Mar-2018 05:00,8.2,
08-Mar-2018 06:00,6.6,
08-Mar-2018 07:00,8.7,
08-Mar-2018 08:00,9.9,
08-Mar-2018 09:00,8.1,
08-Mar-2018 10:00,7.1,
08-Mar-2018 11:00,6.7,
08-Mar-2018 12:00,5.5,
08-Mar-2018 13:00,4.9,
08-Mar-2018 14:00,6.6,
08-Mar-2018 15:00,6.7,
08-Mar-2018 16:00,6.7,
08-Mar-2018 17:00,9,
08-Mar-2018 18:00,8,
08-Mar-2018 19:00,9.1,
08-Mar-2018 20:00,7.6,
08-Mar-2018 21:00,7.6,
08-Mar-2018 22:00,7.4,
08-Mar-2018 23:00,7.1,
09-Mar-2018 00:00,7.6,
09-Mar-2018 01:00,14.1,
09-Mar-2018 02:00,7.9,
09-Mar-2018 03:00,7.5,
09-Mar-2018 04:00,7.5,
09-Mar-2018 05:00,6.8,
09-Mar-2018 06:00,11.7,
09-Mar-2018 07:00,8.8,
09-Mar-2018 08:00,6.4,
09-Mar-2018 09:00,9.4,
09-Mar-2018 10:00,7,
09-Mar-2018 11:00,5.1,
09-Mar-2018 12:00,4.6,
09-Mar-2018 13:00,5.7,
09-Mar-2018 14:00,6.8,
09-Mar-2018 15:00,10.7,
09-Mar-2018 16:00,6.3,
09-Mar-2018 17:00,6.6,
09-Mar-2018 18:00,12.2,
09-Mar-2018 19:00,8,
09-Mar-2018 20:00,10.4,
09-Mar-2018 21:00,11.3,
09-Mar-2018 22:00,8.8,
09-Mar-2018 23:00,9,
10-Mar-2018 00:00,8.5,
10-Mar-2018 01:00,26.8,
10-Mar-2018 02:00,11.4,
10-Mar-2018 03:00,8.6,
10-Mar-2018 04:00,7.4,
10-Mar-2018 05:00,8.2,
10-Mar-2018 06:00,8.4,
10-Mar-2018 07:00,8,
10-Mar-2018 08:00,8.9,
10-Mar-2018 09:00,9.1,
10-Mar-2018 10:00,11,
10-Mar-2018 11:00,8.5,
10-Mar-2018 12:00,9.6,
10-Mar-2018 13:00,7.4,
10-Mar-2018 14:00,5.7,
10-Mar-2018 15:00,5.6,
10-Mar-2018 16:00,6.7,
10-Mar-2018 17:00,7.5,
10-Mar-2018 18:00,5.6,
10-Mar-2018 19:00,5.2,
10-Mar-2018 20:00,5.7,
10-Mar-2018 21:00,6.9,
10-Mar-2018 22:00,5.5,
10-Mar-2018 23:00,4.1,
11-Mar-2018 00:00,4.1,
11-Mar-2018 01:00,4.5,
11-Mar-2018 02:00,4.4,
11-Mar-2018 03:00,4.1,
11-Mar-2018 04:00,4.5,
11-Mar-2018 05:00,5.6,
11-Mar-2018 06:00,6.7,
11-Mar-2018 07:00,6.7,
11-Mar-2018 08:00,6.1,
11-Mar-2018 09:00,6.7,
11-Mar-2018 10:00,7,
11-Mar-2018 11:00,4.9,
11-Mar-2018 12:00,3.8,
11-Mar-2018 13:00,2.2,
11-Mar-2018 14:00,6.6,
11-Mar-2018 15:00,4.3,
11-Mar-2018 16:00,4.7,
11-Mar-2018 17:00,6,
11-Mar-2018 18:00,5.9,
11-Mar-2018 19:00,7.3,
11-Mar-2018 20:00,6.2,
11-Mar-2018 21:00,4.8,
11-Mar-2018 22:00,5.1,
11-Mar-2018 23:00,4.2,
12-Mar-2018 00:00,3.1,
12-Mar-2018 01:00,3.1,
12-Mar-2018 02:00,2.6,
12-Mar-2018 03:00,3.2,
12-Mar-2018 04:00,4,
12-Mar-2018 05:00,3.9,
12-Mar-2018 06:00,6.2,
12-Mar-2018 07:00,10.1,
12-Mar-2018 08:00,6.4,
12-Mar-2018 09:00,4.8,
12-Mar-2018 10:00,3.5,
12-Mar-2018 11:00,3.1,
12-Mar-2018 12:00,2.7,
12-Mar-2018 13:00,4.8,
12-Mar-2018 14:00,4.3,
12-Mar-2018 15:00,4.6,
12-Mar-2018 16:00,4.7,
12-Mar-2018 17:00,4.3,
12-Mar-2018 18:00,5.8,
12-Mar-2018 19:00,5.4,
12-Mar-2018 20:00,5.8,
12-Mar-2018 21:00,5.4,
12-Mar-2018 22:00,7.1,
12-Mar-2018 23:00,4.9,
13-Mar-2018 00:00,5.7,
13-Mar-2018 01:00,4.7,
13-Mar-2018 02:00,5.7,
13-Mar-2018 03:00,6.1,
13-Mar-2018 04:00,8,
13-Mar-2018 05:00,8.5,
13-Mar-2018 06:00,6.9,
13-Mar-2018 07:00,9.4,
13-Mar-2018 08:00,5.4,
13-Mar-2018 09:00,7,
13-Mar-2018 10:00,4.9,
13-Mar-2018 11:00,3,
13-Mar-2018 12:00,2.6,
13-Mar-2018 13:00,6.4,
13-Mar-2018 14:00,11.1,
13-Mar-2018 15:00,2,
13-Mar-2018 16:00,3.8,
13-Mar-2018 17:00,4.5,
13-Mar-2018 18:00,6.3,
13-Mar-2018 19:00,5.8,
13-Mar-2018 20:00,3.4,
13-Mar-2018 21:00,3.4,
13-Mar-2018 22:00,5.2,
13-Mar-2018 23:00,2.8,
14-Mar-2018 00:00,3.3,
14-Mar-2018 01:00,2.6,
14-Mar-2018 02:00,2.6,
14-Mar-2018 03:00,2.6,
14-Mar-2018 04:00,3.4,
14-Mar-2018 05:00,4.1,
14-Mar-2018 06:00,3.7,
14-Mar-2018 07:00,4.1,
14-Mar-2018 08:00,3.5,
14-Mar-2018 09:00,2.2,
14-Mar-2018 10:00,2.9,
14-Mar-2018 11:00,1.2,
14-Mar-2018 12:00,3.5,
14-Mar-2018 13:00,6.3,
14-Mar-2018 14:00,5,
14-Mar-2018 15:00,7.8,
14-Mar-2018 16:00,2.7,
14-Mar-2018 17:00,3.5,
14-Mar-2018 18:00,4.9,
14-Mar-2018 19:00,2.4,
14-Mar-2018 20:00,3.1,
14-Mar-2018 21:00,2.4,
14-Mar-2018 22:00,3.9,
14-Mar-2018 23:00,3.7,
15-Mar-2018 00:00,4.6,
15-Mar-2018 01:00,4.7,
15-Mar-2018 02:00,3.2,
15-Mar-2018 03:00,3.7,
15-Mar-2018 04:00,4.3,
15-Mar-2018 05:00,2.7,
15-Mar-2018 06:00,3.9,
15-Mar-2018 07:00,3.8,
15-Mar-2018 08:00,3.1,
15-Mar-2018 09:00,4.3,
15-Mar-2018 10:00,4.4,
15-Mar-2018 11:00,4.5,
15-Mar-2018 12:00,3,
15-Mar-2018 13:00,4.5,
15-Mar-2018 14:00,3.8,
15-Mar-2018 15:00,3.4,
15-Mar-2018 16:00,3.9,
15-Mar-2018 17:00,3,
15-Mar-2018 18:00,5.1,
15-Mar-2018 19:00,10.1,
15-Mar-2018 20:00,8.9,
15-Mar-2018 21:00,8.9,
15-Mar-2018 22:00,7.1,
15-Mar-2018 23:00,5.9,
16-Mar-2018 00:00,6.7,
16-Mar-2018 01:00,5.6,
16-Mar-2018 02:00,5.4,
16-Mar-2018 03:00,4.4,
16-Mar-2018 04:00,7.7,
16-Mar-2018 05:00,6.7,
16-Mar-2018 06:00,8.3,
16-Mar-2018 07:00,7.6,
16-Mar-2018 08:00,6.4,
16-Mar-2018 09:00,6.8,
16-Mar-2018 10:00,,BA
16-Mar-2018 11:00,,BA
16-Mar-2018 12:00,21.8,
16-Mar-2018 13:00,16.7,
16-Mar-2018 14:00,12.4,
16-Mar-2018 15:00,29.1,
16-Mar-2018 16:00,12.5,
16-Mar-2018 17:00,8.1,
16-Mar-2018 18:00,7.8,
16-Mar-2018 19:00,7.6,
16-Mar-2018 20:00,4.4,
16-Mar-2018 21:00,5.8,
16-Mar-2018 22:00,4.9,
16-Mar-2018 23:00,4,
17-Mar-2018 00:00,4,
17-Mar-2018 01:00,4.4,
17-Mar-2018 02:00,3.7,
17-Mar-2018 03:00,3.8,
17-Mar-2018 04:00,3.7,
17-Mar-2018 05:00,5,
17-Mar-2018 06:00,5.1,
17-Mar-2018 07:00,6,
17-Mar-2018 08:00,4.7,
17-Mar-2018 09:00,3.3,
17-Mar-2018 10:00,3.8,
17-Mar-2018 11:00,3.7,
17-Mar-2018 12:00,2.1,
17-Mar-2018 13:00,5.7,
17-Mar-2018 14:00,4.9,
17-Mar-2018 15:00,5.1,
17-Mar-2018 16:00,5.7,
17-Mar-2018 17:00,5.1,
17-Mar-2018 18:00,4,
17-Mar-2018 19:00,4.5,
17-Mar-2018 20:00,4.8,
17-Mar-2018 21:00,6,
17-Mar-2018 22:00,4.6,
17-Mar-2018 23:00,4.5,
18-Mar-2018 00:00,6,
18-Mar-2018 01:00,5.5,
18-Mar-2018 02:00,4.7,
18-Mar-2018 03:00,4.6,
18-Mar-2018 04:00,4.7,
18-Mar-2018 05:00,4.9,
18-Mar-2018 06:00,5,
18-Mar-2018 07:00,4.1,
18-Mar-2018 08:00,4.2,
18-Mar-2018 09:00,3.6,
18-Mar-2018 10:00,2.9,
18-Mar-2018 11:00,2.2,
18-Mar-2018 12:00,1.7,
18-Mar-2018 13:00,2.5,
18-Mar-2018 14:00,3.5,
18-Mar-2018 15:00,2.8,
18-Mar-2018 16:00,3,
18-Mar-2018 17:00,3.1,
18-Mar-2018 18:00,4.9,
18-Mar-2018 19:00,7.6,
18-Mar-2018 20:00,6.1,
18-Mar-2018 21:00,6,
18-Mar-2018 22:00,5.3,
18-Mar-2018 23:00,4.8,
19-Mar-2018 00:00,4.9,
19-Mar-2018 01:00,4.6,
19-Mar-2018 02:00,4,
19-Mar-2018 03:00,6.6,
19-Mar-2018 04:00,4.3,
19-Mar-2018 05:00,7.4,
19-Mar-2018 06:00,13.2,
19-Mar-2018 07:00,6.5,
19-Mar-2018 08:00,4.8,
19-Mar-2018 09:00,5.2,
19-Mar-2018 10:00,3.4,
19-Mar-2018 11:00,3,
19-Mar-2018 12:00,2.4,
19-Mar-2018 13:00,2.8,
19-Mar-2018 14:00,3.6,
19-Mar-2018 15:00,5.7,
19-Mar-2018 16:00,4.7,
19-Mar-2018 17:00,4.2,
19-Mar-2018 18:00,5.3,
19-Mar-2018 19:00,17.2,
19-Mar-2018 20:00,6.5,
19-Mar-2018 21:00,5.7,
19-Mar-2018 22:00,5.6,
19-Mar-2018 23:00,4.4,
20-Mar-2018 00:00,5.7,
20-Mar-2018 01:00,7.7,
20-Mar-2018 02:00,3.6,
20-Mar-2018 03:00,6,
20-Mar-2018 04:00,6.4,
20-Mar-2018 05:00,7.5,
20-Mar-2018 06:00,5.3,
20-Mar-2018 07:00,13.4,
20-Mar-2018 08:00,8.2,
20-Mar-2018 09:00,6.1,
20-Mar-2018 10:00,6.8,
20-Mar-2018 11:00,7.5,
20-Mar-2018 12:00,19.7,
20-Mar-2018 13:00,6.9,
20-Mar-2018 14:00,8.3,
20-Mar-2018 15:00,6.3,
20-Mar-2018 16:00,9.4,
20-Mar-2018 17:00,13.4,
20-Mar-2018 18:00,8.7,
20-Mar-2018 19:00,9.9,
20-Mar-2018 20:00,8.6,
20-Mar-2018 21:00,6.9,
20-Mar-2018 22:00,4,
20-Mar-2018 23:00,4.6,
21-Mar-2018 00:00,4.1,
21-Mar-2018 01:00,3.9,
21-Mar-2018 02:00,3.8,
21-Mar-2018 03:00,4.6,
21-Mar-2018 04:00,4,
21-Mar-2018 05:00,7.3,
21-Mar-2018 06:00,4.8,
21-Mar-2018 07:00,7.3,
21-Mar-2018 08:00,7.2,
21-Mar-2018 09:00,6.8,
21-Mar-2018 10:00,5.7,
21-Mar-2018 11:00,7.6,
21-Mar-2018 12:00,6,
21-Mar-2018 13:00,5.2,
21-Mar-2018 14:00,5.2,
21-Mar-2018 15:00,4.4,
21-Mar-2018 16:00,3.4,
21-Mar-2018 17:00,3.8,
21-Mar-2018 18:00,3.3,
21-Mar-2018 19:00,4,
21-Mar-2018 20:00,3.7,
21-Mar-2018 21:00,2.3,
21-Mar-2018 22:00,2.1,
21-Mar-2018 23:00,2.8,
22-Mar-2018 00:00,3.6,
22-Mar-2018 01:00,2.9,
22-Mar-2018 02:00,3.2,
22-Mar-2018 03:00,2.6,
22-Mar-2018 04:00,4.5,
22-Mar-2018 05:00,4.5,
22-Mar-2018 06:00,3.5,
22-Mar-2018 07:00,3.7,
22-Mar-2018 08:00,4.9,
22-Mar-2018 09:00,4.7,
22-Mar-2018 10:00,5.5,
22-Mar-2018 11:00,3.6,
22-Mar-2018 12:00,2.9,
22-Mar-2018 13:00,5.4,
22-Mar-2018 14:00,3.2,
22-Mar-2018 15:00,0.6,
22-Mar-2018 16:00,0.5,
22-Mar-2018 17:00,4.2,
22-Mar-2018 18:00,1.4,
22-Mar-2018 19:00,4.2,
22-Mar-2018 20:00,3.8,
22-Mar-2018 21:00,6.9,
22-Mar-2018 22:00,5.1,
22-Mar-2018 23:00,2.7,
23-Mar-2018 00:00,2.5,
23-Mar-2018 01:00,2.1,
23-Mar-2018 02:00,3.2,
23-Mar-2018 03:00,1.8,
23-Mar-2018 04:00,4.1,
23-Mar-2018 05:00,3.8,
23-Mar-2018 06:00,5.8,
23-Mar-2018 07:00,4.7,
23-Mar-2018 08:00,5.9,
23-Mar-2018 09:00,4.1,
23-Mar-2018 10:00,2.6,
23-Mar-2018 11:00,2.2,
23-Mar-2018 12:00,2.4,
23-Mar-2018 13:00,3.5,
23-Mar-2018 14:00,3.6,
23-Mar-2018 15:00,3.3,
23-Mar-2018 16:00,1.2,
23-Mar-2018 17:00,3.6,
23-Mar-2018 18:00,3.1,
23-Mar-2018 19:00,5.7,
23-Mar-2018 20:00,6,
23-Mar-2018 21:00,6.2,
23-Mar-2018 22:00,7.7,
23-Mar-2018 23:00,4.5,
24-Mar-2018 00:00,5.6,
24-Mar-2018 01:00,5.1,
24-Mar-2018 02:00,5.7,
24-Mar-2018 03:00,6.9,
24-Mar-2018 04:00,8,
24-Mar-2018 05:00,7.2,
24-Mar-2018 06:00,8.7,
24-Mar-2018 07:00,8.4,
24-Mar-2018 08:00,8.1,
24-Mar-2018 09:00,8.3,
24-Mar-2018 10:00,7.7,
24-Mar-2018 11:00,7.6,
24-Mar-2018 12:00,6.6,
24-Mar-2018 13:00,7.2,
24-Mar-2018 14:00,6.1,
24-Mar-2018 15:00,5,
24-Mar-2018 16:00,7,
24-Mar-2018 17:00,4,
24-Mar-2018 18:00,5.1,
24-Mar-2018 19:00,8.6,
24-Mar-2018 20:00,9.1,
24-Mar-2018 21:00,8.4,
24-Mar-2018 22:00,7.9,
24-Mar-2018 23:00,8,
25-Mar-2018 00:00,7.6,
25-Mar-2018 01:00,6.2,
25-Mar-2018 02:00,6.5,
25-Mar-2018 03:00,6.9,
25-Mar-2018 04:00,6.2,
25-Mar-2018 05:00,6.5,
25-Mar-2018 06:00,7.5,
25-Mar-2018 07:00,6.3,
25-Mar-2018 08:00,6.2,
25-Mar-2018 09:00,5.9,
25-Mar-2018 10:00,5.7,
25-Mar-2018 11:00,4.7,
25-Mar-2018 12:00,3.5,
25-Mar-2018 13:00,4,
25-Mar-2018 14:00,4.8,
25-Mar-2018 15:00,4.6,
25-Mar-2018 16:00,5.9,
25-Mar-2018 17:00,4.6,
25-Mar-2018 18:00,5.5,
25-Mar-2018 19:00,7.4,
25-Mar-2018 20:00,8.2,
25-Mar-2018 21:00,17.8,
25-Mar-2018 22:00,9.4,
25-Mar-2018 23:00,8.9,
26-Mar-2018 00:00,8.2,
26-Mar-2018 01:00,6.6,
26-Mar-2018 02:00,15.4,
26-Mar-2018 03:00,19.8,
26-Mar-2018 04:00,19.7,
26-Mar-2018 05:00,12.2,
26-Mar-2018 06:00,13.7,
26-Mar-2018 07:00,16.7,
26-Mar-2018 08:00,16.4,
26-Mar-2018 09:00,13.3,
26-Mar-2018 10:00,6.4,
26-Mar-2018 11:00,5.3,
26-Mar-2018 12:00,5.4,
26-Mar-2018 13:00,4.7,
26-Mar-2018 14:00,5,
26-Mar-2018 15:00,5.2,
26-Mar-2018 16:00,5.3,
26-Mar-2018 17:00,3.8,
26-Mar-2018 18:00,10.9,
26-Mar-2018 19:00,5.7,
26-Mar-2018 20:00,13.1,
26-Mar-2018 21:00,12.2,
26-Mar-2018 22:00,36.3,
26-Mar-2018 23:00,11.2,
27-Mar-2018 00:00,46,
27-Mar-2018 01:00,45.2,
27-Mar-2018 02:00,84.8,
27-Mar-2018 03:00,127.2,
27-Mar-2018 04:00,111.5,
27-Mar-2018 05:00,137.7,
27-Mar-2018 06:00,48.7,
27-Mar-2018 07:00,32,
27-Mar-2018 08:00,30.3,
27-Mar-2018 09:00,59.7,
27-Mar-2018 10:00,43.1,
27-Mar-2018 11:00,19.8,
27-Mar-2018 12:00,14.8,
27-Mar-2018 13:00,11,
27-Mar-2018 14:00,7.1,
27-Mar-2018 15:00,6.3,
27-Mar-2018 16:00,11.9,
27-Mar-2018 17:00,8.9,
27-Mar-2018 18:00,8.5,
27-Mar-2018 19:00,7.6,
27-Mar-2018 20:00,8.5,
27-Mar-2018 21:00,10.6,
27-Mar-2018 22:00,13.8,
27-Mar-2018 23:00,12.7,
28-Mar-2018 00:00,10.6,
28-Mar-2018 01:00,7.8,
28-Mar-2018 02:00,6.2,
28-Mar-2018 03:00,5.9,
28-Mar-2018 04:00,6.9,
28-Mar-2018 05:00,6.9,
28-Mar-2018 06:00,7.7,
28-Mar-2018 07:00,7,
28-Mar-2018 08:00,6.8,
28-Mar-2018 09:00,7.8,
28-Mar-2018 10:00,5.6,
28-Mar-2018 11:00,5,
28-Mar-2018 12:00,3.8,
28-Mar-2018 13:00,3.6,
28-Mar-2018 14:00,2.5,
28-Mar-2018 15:00,6.7,
28-Mar-2018 16:00,8.9,
28-Mar-2018 17:00,9.5,
28-Mar-2018 18:00,8.3,
28-Mar-2018 19:00,15.1,
28-Mar-2018 20:00,13.3,
28-Mar-2018 21:00,8.1,
28-Mar-2018 22:00,8.5,
28-Mar-2018 23:00,6.7,
29-Mar-2018 00:00,7.3,
29-Mar-2018 01:00,6.1,
29-Mar-2018 02:00,4.5,
29-Mar-2018 03:00,6.9,
29-Mar-2018 04:00,7.2,
29-Mar-2018 05:00,8.1,
29-Mar-2018 06:00,8.2,
29-Mar-2018 07:00,9.6,
29-Mar-2018 08:00,9,
29-Mar-2018 09:00,7.8,
29-Mar-2018 10:00,7.2,
29-Mar-2018 11:00,5.4,
29-Mar-2018 12:00,3.4,
29-Mar-2018 13:00,4.8,
29-Mar-2018 14:00,,AX
29-Mar-2018 15:00,9.5,
29-Mar-2018 16:00,8.1,
29-Mar-2018 17:00,10.3,
29-Mar-2018 18:00,14,
29-Mar-2018 19:00,12.2,
29-Mar-2018 20:00,11,
29-Mar-2018 21:00,9.1,
29-Mar-2018 22:00,9,
29-Mar-2018 23:00,10.2,
30-Mar-2018 00:00,7.6,
30-Mar-2018 01:00,8.1,
30-Mar-2018 02:00,8.1,
30-Mar-2018 03:00,9,
30-Mar-2018 04:00,10.2,
30-Mar-2018 05:00,10,
30-Mar-2018 06:00,10.2,
30-Mar-2018 07:00,10.9,
30-Mar-2018 08:00,11.7,
30-Mar-2018 09:00,10.1,
30-Mar-2018 10:00,8.2,
30-Mar-2018 11:00,7.9,
30-Mar-2018 12:00,9.8,
30-Mar-2018 13:00,11.8,
30-Mar-2018 14:00,13.2,
30-Mar-2018 15:00,12.2,
30-Mar-2018 16:00,16.4,
30-Mar-2018 17:00,12.8,
30-Mar-2018 18:00,14.1,
30-Mar-2018 19:00,16.1,
30-Mar-2018 20:00,17.3,
30-Mar-2018 21:00,14.3,
30-Mar-2018 22:00,13.3,
30-Mar-2018 23:00,13.4,
31-Mar-2018 00:00,16.5,
31-Mar-2018 01:00,11.7,
31-Mar-2018 02:00,10.9,
31-Mar-2018 03:00,9.2,
31-Mar-2018 04:00,9.5,
31-Mar-2018 05:00,12.4,
31-Mar-2018 06:00,13.6,
31-Mar-2018 07:00,12.1,
31-Mar-2018 08:00,10.8,
31-Mar-2018 09:00,9.8,
31-Mar-2018 10:00,8.1,
31-Mar-2018 11:00,7,
31-Mar-2018 12:00,8.7,
31-Mar-2018 13:00,8.8,
31-Mar-2018 14:00,7.3,
31-Mar-2018 15:00,12,
31-Mar-2018 16:00,18.9,
31-Mar-2018 17:00,15.8,
31-Mar-2018 18:00,14.5,
31-Mar-2018 19:00,12.5,
31-Mar-2018 20:00,14.8,
31-Mar-2018 21:00,14.4,
31-Mar-2018 22:00,16.2,
31-Mar-2018 23:00,12,
